Location: Mauries
(43.6188°N, 0.3322°W)
Time: 19:50:18
(UTC+00:00)

Cosmos 1862 Rocket - Pass Details

Date: 14 January 2026
Orbit: 596 x 627 km, 82.5° (Epoch: 10 February)

Event Time Altitude Azimuth Distance (km) Brightness Sun altitude
Rises 06:37:43 0° 350° (N) 2,881 6.7 -9.8°
Reaches altitude 10° 06:39:57 10° 349° (N) 1,967 5.8 -9.4°
Maximum altitude 06:44:18 79° 264° (W) 620 3.5 -8.7°
Drops below altitude 10° 06:48:35 10° 177° (S) 1,935 6.4 -8.0°
Sets 06:50:46 0° 177° (S) 2,829 7.3 -7.6°
